5NBSK WIHH-WARR

Flight info

Callsign 5NBSK
Flight time 2h 33m
Altitude 9000
Route DCT HLM W45 SBR DCT
Aircraft A139/L-SDG/S

Departure

Time 2026-05-01 09:30
Airport Halim Perdanakusuma International Airport (WIHH)

Arrival

Time 2026-05-01 12:04
Airport Juanda International Airport (WARR)
Time Latitude Longitude Altitude Speed Heading
2026-05-01 09:17 -6.26725 106.89620 95 ft 0 kts 155°
2026-05-01 09:21 -6.26733 106.89612 95 ft 2 kts 266°
2026-05-01 09:21 -6.26692 106.89566 93 ft 5 kts 329°
2026-05-01 09:22 -6.26682 106.89485 91 ft 7 kts 247°
2026-05-01 09:22 -6.26727 106.89375 90 ft 8 kts 262°
2026-05-01 09:23 -6.26720 106.89334 89 ft 5 kts 317°
2026-05-01 09:23 -6.26685 106.89316 87 ft 0 kts 335°
2026-05-01 09:27 -6.26675 106.89311 87 ft 5 kts 332°
2026-05-01 09:27 -6.26651 106.89300 87 ft 2 kts 336°
2026-05-01 09:27 -6.26617 106.89286 87 ft 6 kts 335°
2026-05-01 09:28 -6.26585 106.89280 87 ft 4 kts 28°
2026-05-01 09:28 -6.26580 106.89286 87 ft 0 kts 63°
2026-05-01 09:30 -6.26579 106.89288 89 ft 1 kts 70°
2026-05-01 09:30 -6.26511 106.89422 168 ft 48 kts 71°
2026-05-01 09:30 -6.26053 106.90386 846 ft 86 kts 73°
2026-05-01 09:31 -6.26118 106.90967 1136 ft 84 kts 104°
2026-05-01 09:31 -6.26464 106.91433 1382 ft 83 kts 122°
2026-05-01 09:31 -6.27233 106.92467 1757 ft 101 kts 115°
2026-05-01 09:32 -6.27487 106.93131 2027 ft 101 kts 108°
2026-05-01 09:32 -6.27927 106.94535 2480 ft 111 kts 105°
2026-05-01 09:32 -6.28142 106.95289 2752 ft 110 kts 104°
2026-05-01 09:33 -6.28340 106.96030 2985 ft 110 kts 108°
2026-05-01 09:33 -6.28545 106.96779 3219 ft 111 kts 109°
2026-05-01 09:33 -6.28954 106.98287 3685 ft 112 kts 114°
2026-05-01 09:34 -6.29165 106.99046 3917 ft 113 kts 113°
2026-05-01 09:34 -6.29407 106.99793 4146 ft 113 kts 116°
2026-05-01 09:34 -6.29966 107.01287 4606 ft 116 kts 118°
2026-05-01 09:35 -6.30208 107.02058 4860 ft 115 kts 114°
2026-05-01 09:35 -6.30646 107.03616 5310 ft 117 kts 112°
2026-05-01 09:35 -6.30864 107.04435 5420 ft 127 kts 112°
2026-05-01 09:36 -6.31107 107.05341 5483 ft 140 kts 112°
2026-05-01 09:36 -6.31360 107.06296 5651 ft 141 kts 111°
2026-05-01 09:36 -6.31611 107.07252 5776 ft 141 kts 110°
2026-05-01 09:36 -6.31862 107.08211 5892 ft 141 kts 110°
2026-05-01 09:37 -6.32113 107.09165 6005 ft 141 kts 110°
2026-05-01 09:37 -6.32614 107.11080 6231 ft 142 kts 110°
2026-05-01 09:37 -6.32867 107.12039 6340 ft 143 kts 111°
2026-05-01 09:38 -6.33374 107.13966 6584 ft 142 kts 111°
2026-05-01 09:38 -6.33628 107.14928 6687 ft 143 kts 111°
2026-05-01 09:38 -6.33883 107.15897 6802 ft 144 kts 111°
2026-05-01 09:39 -6.34392 107.17828 7044 ft 143 kts 111°
2026-05-01 09:39 -6.34647 107.18796 7163 ft 143 kts 111°
2026-05-01 09:39 -6.34902 107.19764 7265 ft 144 kts 111°
2026-05-01 09:40 -6.35158 107.20735 7390 ft 143 kts 111°
2026-05-01 09:40 -6.35668 107.22678 7610 ft 144 kts 111°
2026-05-01 09:40 -6.35925 107.23657 7731 ft 144 kts 111°
2026-05-01 09:41 -6.36182 107.24633 7848 ft 145 kts 111°
2026-05-01 09:41 -6.36699 107.26597 8056 ft 145 kts 111°
2026-05-01 09:41 -6.36957 107.27581 8162 ft 146 kts 111°
2026-05-01 09:42 -6.37217 107.28564 8277 ft 146 kts 111°
2026-05-01 09:42 -6.37475 107.29548 8401 ft 145 kts 111°
2026-05-01 09:42 -6.37991 107.31510 8619 ft 146 kts 111°
2026-05-01 09:43 -6.38509 107.33481 8858 ft 145 kts 111°
2026-05-01 09:43 -6.38768 107.34467 8952 ft 146 kts 111°
2026-05-01 09:43 -6.39030 107.35455 9042 ft 147 kts 111°
2026-05-01 09:44 -6.39550 107.37436 9077 ft 145 kts 110°
2026-05-01 09:44 -6.39808 107.38420 9048 ft 146 kts 110°
2026-05-01 09:44 -6.40070 107.39415 9024 ft 147 kts 110°
2026-05-01 09:45 -6.40330 107.40407 9026 ft 146 kts 110°
2026-05-01 09:45 -6.40854 107.42395 9028 ft 147 kts 110°
2026-05-01 09:45 -6.41113 107.43383 9042 ft 146 kts 110°
2026-05-01 09:46 -6.41372 107.44369 9024 ft 147 kts 110°
2026-05-01 09:46 -6.41632 107.45362 9029 ft 146 kts 110°
2026-05-01 09:46 -6.41893 107.46356 9020 ft 147 kts 110°
2026-05-01 09:46 -6.42154 107.47349 9023 ft 146 kts 110°
2026-05-01 09:47 -6.42411 107.48329 9009 ft 146 kts 110°
2026-05-01 09:47 -6.42671 107.49321 9022 ft 145 kts 110°
2026-05-01 09:47 -6.42929 107.50301 9008 ft 146 kts 110°
2026-05-01 09:47 -6.43189 107.51292 9020 ft 147 kts 110°
2026-05-01 09:48 -6.43450 107.52285 9036 ft 147 kts 110°
2026-05-01 09:48 -6.43710 107.53277 9049 ft 146 kts 110°
2026-05-01 09:48 -6.43970 107.54267 9028 ft 146 kts 110°
2026-05-01 09:48 -6.44230 107.55257 9026 ft 145 kts 109°
2026-05-01 09:49 -6.44488 107.56242 9013 ft 146 kts 109°
2026-05-01 09:49 -6.44747 107.57230 9019 ft 145 kts 110°
2026-05-01 09:49 -6.45006 107.58219 9019 ft 146 kts 109°
2026-05-01 09:49 -6.45266 107.59207 9031 ft 146 kts 109°
2026-05-01 09:50 -6.45526 107.60198 9028 ft 147 kts 109°
2026-05-01 09:50 -6.45785 107.61190 9035 ft 147 kts 109°
2026-05-01 09:50 -6.46045 107.62186 9036 ft 146 kts 110°
2026-05-01 09:50 -6.46306 107.63180 9018 ft 147 kts 110°
2026-05-01 09:51 -6.46566 107.64174 9020 ft 147 kts 110°
2026-05-01 09:51 -6.46826 107.65167 9017 ft 146 kts 110°
2026-05-01 09:51 -6.47086 107.66153 9011 ft 147 kts 110°
2026-05-01 09:51 -6.47348 107.67148 9020 ft 146 kts 110°
2026-05-01 09:52 -6.47608 107.68137 9013 ft 147 kts 110°
2026-05-01 09:52 -6.47870 107.69133 9017 ft 147 kts 110°
2026-05-01 09:52 -6.48129 107.70119 9034 ft 145 kts 109°
2026-05-01 09:52 -6.48389 107.71108 9017 ft 146 kts 109°
2026-05-01 09:53 -6.48649 107.72095 9027 ft 146 kts 109°
2026-05-01 09:53 -6.48907 107.73083 9027 ft 147 kts 109°
2026-05-01 09:53 -6.49167 107.74077 9027 ft 146 kts 109°
2026-05-01 09:53 -6.49425 107.75067 9024 ft 146 kts 109°
2026-05-01 09:54 -6.49684 107.76055 9030 ft 146 kts 109°
2026-05-01 09:54 -6.49943 107.77045 9041 ft 145 kts 109°
2026-05-01 09:54 -6.50202 107.78033 9041 ft 146 kts 109°
2026-05-01 09:54 -6.50462 107.79027 9046 ft 146 kts 109°
2026-05-01 09:55 -6.50720 107.80014 9044 ft 146 kts 109°
2026-05-01 09:55 -6.50982 107.81010 9035 ft 147 kts 109°
2026-05-01 09:55 -6.51242 107.82001 9040 ft 146 kts 109°
2026-05-01 09:55 -6.51502 107.82995 9031 ft 147 kts 109°
2026-05-01 09:56 -6.51673 107.83647 9020 ft 147 kts 109°
2026-05-01 09:56 -6.51932 107.84639 9028 ft 146 kts 109°
2026-05-01 09:56 -6.52191 107.85630 9042 ft 146 kts 109°
2026-05-01 09:56 -6.52450 107.86620 9051 ft 145 kts 109°
2026-05-01 09:57 -6.52707 107.87604 9052 ft 145 kts 109°
2026-05-01 09:57 -6.52964 107.88588 9042 ft 146 kts 109°
2026-05-01 09:57 -6.53223 107.89578 9047 ft 146 kts 109°
2026-05-01 09:57 -6.53481 107.90566 9055 ft 146 kts 109°
2026-05-01 09:58 -6.53739 107.91552 9062 ft 146 kts 109°
2026-05-01 09:58 -6.53998 107.92544 9049 ft 147 kts 110°
2026-05-01 09:58 -6.54260 107.93542 9037 ft 147 kts 110°
2026-05-01 09:58 -6.54512 107.94537 9048 ft 146 kts 109°
2026-05-01 09:59 -6.54760 107.95529 9041 ft 146 kts 109°
2026-05-01 09:59 -6.55010 107.96527 9037 ft 147 kts 109°
2026-05-01 09:59 -6.55260 107.97526 9041 ft 147 kts 109°
2026-05-01 09:59 -6.55510 107.98526 9047 ft 147 kts 108°
2026-05-01 10:00 -6.55760 107.99524 9050 ft 147 kts 108°
2026-05-01 10:00 -6.56009 108.00524 9043 ft 147 kts 108°
2026-05-01 10:00 -6.56256 108.01517 9043 ft 146 kts 108°
2026-05-01 10:00 -6.56504 108.02514 9044 ft 146 kts 108°
2026-05-01 10:01 -6.56752 108.03509 9042 ft 147 kts 108°
2026-05-01 10:01 -6.56999 108.04501 9053 ft 145 kts 108°
2026-05-01 10:01 -6.57246 108.05492 9042 ft 146 kts 108°
2026-05-01 10:01 -6.57494 108.06487 9029 ft 147 kts 109°
2026-05-01 10:02 -6.57742 108.07485 9043 ft 147 kts 109°
2026-05-01 10:02 -6.57992 108.08485 9035 ft 148 kts 109°
2026-05-01 10:02 -6.58241 108.09484 9044 ft 146 kts 109°
2026-05-01 10:02 -6.58489 108.10482 9033 ft 147 kts 109°
2026-05-01 10:03 -6.58738 108.11476 9037 ft 147 kts 109°
2026-05-01 10:03 -6.58987 108.12477 9026 ft 147 kts 109°
2026-05-01 10:03 -6.59237 108.13477 9030 ft 147 kts 109°
2026-05-01 10:03 -6.59486 108.14476 9034 ft 147 kts 109°
2026-05-01 10:04 -6.59734 108.15474 9031 ft 147 kts 108°
2026-05-01 10:04 -6.59983 108.16473 9041 ft 146 kts 109°
2026-05-01 10:04 -6.60231 108.17471 9034 ft 147 kts 109°
2026-05-01 10:04 -6.60479 108.18469 9042 ft 147 kts 109°
2026-05-01 10:05 -6.60727 108.19468 9044 ft 147 kts 109°
2026-05-01 10:05 -6.60975 108.20460 9037 ft 146 kts 109°
2026-05-01 10:05 -6.61223 108.21458 9020 ft 147 kts 109°
2026-05-01 10:05 -6.61470 108.22449 9031 ft 146 kts 109°
2026-05-01 10:06 -6.61717 108.23441 9025 ft 146 kts 109°
2026-05-01 10:06 -6.61965 108.24437 9037 ft 146 kts 109°
2026-05-01 10:06 -6.62214 108.25436 9026 ft 147 kts 109°
2026-05-01 10:06 -6.62462 108.26431 9041 ft 146 kts 108°
2026-05-01 10:07 -6.62709 108.27425 9024 ft 147 kts 108°
2026-05-01 10:07 -6.62957 108.28421 9032 ft 146 kts 108°
2026-05-01 10:07 -6.63205 108.29417 9025 ft 147 kts 108°
2026-05-01 10:07 -6.63453 108.30416 9024 ft 146 kts 108°
2026-05-01 10:08 -6.63945 108.32397 9033 ft 146 kts 108°
2026-05-01 10:08 -6.64193 108.33396 9025 ft 147 kts 109°
2026-05-01 10:08 -6.64441 108.34393 9048 ft 146 kts 109°
2026-05-01 10:09 -6.64687 108.35385 9034 ft 147 kts 109°
2026-05-01 10:09 -6.64935 108.36382 9032 ft 147 kts 109°
2026-05-01 10:09 -6.65182 108.37376 9035 ft 146 kts 109°
2026-05-01 10:09 -6.65430 108.38369 9021 ft 147 kts 109°
2026-05-01 10:10 -6.65678 108.39367 9026 ft 147 kts 109°
2026-05-01 10:10 -6.65925 108.40363 9039 ft 147 kts 109°
2026-05-01 10:10 -6.66418 108.42345 9044 ft 146 kts 109°
2026-05-01 10:11 -6.66665 108.43338 9040 ft 146 kts 108°
2026-05-01 10:11 -6.66912 108.44334 9039 ft 147 kts 109°
2026-05-01 10:11 -6.67159 108.45328 9043 ft 146 kts 109°
2026-05-01 10:11 -6.67405 108.46322 9036 ft 146 kts 109°
2026-05-01 10:12 -6.67651 108.47312 9028 ft 147 kts 109°
2026-05-01 10:12 -6.67816 108.47974 9039 ft 146 kts 109°
2026-05-01 10:12 -6.68393 108.50295 9033 ft 147 kts 109°
2026-05-01 10:13 -6.68641 108.51295 9034 ft 147 kts 109°
2026-05-01 10:13 -6.68888 108.52290 9036 ft 146 kts 109°
2026-05-01 10:13 -6.69135 108.53287 9025 ft 147 kts 109°
2026-05-01 10:14 -6.69628 108.55274 9026 ft 146 kts 109°
2026-05-01 10:14 -6.69843 108.56279 9009 ft 148 kts 104°
2026-05-01 10:14 -6.70007 108.57292 9030 ft 146 kts 104°
2026-05-01 10:14 -6.70171 108.58304 9023 ft 147 kts 104°
2026-05-01 10:15 -6.70336 108.59323 9015 ft 148 kts 104°
2026-05-01 10:15 -6.70501 108.60344 9021 ft 147 kts 104°
2026-05-01 10:15 -6.70663 108.61356 9033 ft 146 kts 104°
2026-05-01 10:15 -6.70827 108.62372 9014 ft 148 kts 104°
2026-05-01 10:16 -6.70990 108.63386 9021 ft 147 kts 104°
2026-05-01 10:16 -6.71152 108.64400 9019 ft 146 kts 104°
2026-05-01 10:16 -6.71480 108.66436 9012 ft 148 kts 104°
2026-05-01 10:17 -6.71643 108.67452 9020 ft 148 kts 104°
2026-05-01 10:17 -6.71971 108.69487 9014 ft 147 kts 104°
2026-05-01 10:17 -6.72134 108.70502 9009 ft 146 kts 104°
2026-05-01 10:18 -6.72459 108.72532 9007 ft 147 kts 104°
2026-05-01 10:18 -6.72622 108.73551 9001 ft 147 kts 104°
2026-05-01 10:18 -6.72786 108.74572 8999 ft 147 kts 104°
2026-05-01 10:19 -6.72949 108.75592 9006 ft 147 kts 104°
2026-05-01 10:19 -6.73113 108.76616 8997 ft 147 kts 104°
2026-05-01 10:19 -6.73276 108.77636 9002 ft 147 kts 104°
2026-05-01 10:20 -6.73603 108.79677 8999 ft 147 kts 104°
2026-05-01 10:20 -6.73766 108.80695 8997 ft 147 kts 104°
2026-05-01 10:20 -6.73928 108.81711 8997 ft 147 kts 104°
2026-05-01 10:20 -6.74091 108.82732 9003 ft 147 kts 104°
2026-05-01 10:21 -6.74254 108.83752 8991 ft 148 kts 104°
2026-05-01 10:21 -6.74582 108.85794 9008 ft 147 kts 104°
2026-05-01 10:21 -6.74745 108.86816 9010 ft 147 kts 104°
2026-05-01 10:22 -6.75071 108.88854 9007 ft 146 kts 104°
2026-05-01 10:22 -6.75395 108.90881 9003 ft 147 kts 104°
2026-05-01 10:23 -6.75557 108.91898 9004 ft 147 kts 104°
2026-05-01 10:23 -6.75883 108.93933 9012 ft 147 kts 104°
2026-05-01 10:23 -6.76046 108.94950 9015 ft 147 kts 103°
2026-05-01 10:24 -6.76371 108.96988 9004 ft 148 kts 103°
2026-05-01 10:24 -6.76696 108.99032 9016 ft 147 kts 103°
2026-05-01 10:25 -6.77021 109.01072 9014 ft 147 kts 104°
2026-05-01 10:25 -6.77347 109.03113 8992 ft 149 kts 104°
2026-05-01 10:26 -6.77512 109.04147 9004 ft 149 kts 104°
2026-05-01 10:26 -6.77676 109.05178 9025 ft 148 kts 104°
2026-05-01 10:26 -6.78002 109.07219 9020 ft 147 kts 104°
2026-05-01 10:27 -6.78326 109.09256 9006 ft 147 kts 104°
2026-05-01 10:27 -6.78651 109.11293 8995 ft 148 kts 104°
2026-05-01 10:28 -6.78813 109.12309 9010 ft 146 kts 104°
2026-05-01 10:28 -6.79130 109.14348 8990 ft 148 kts 103°
2026-05-01 10:28 -6.79284 109.15376 8996 ft 148 kts 103°
2026-05-01 10:29 -6.79592 109.17430 8992 ft 149 kts 103°
2026-05-01 10:29 -6.79746 109.18456 9002 ft 148 kts 103°
2026-05-01 10:30 -6.80051 109.20500 8993 ft 148 kts 103°
2026-05-01 10:30 -6.80357 109.22540 8985 ft 147 kts 103°
2026-05-01 10:31 -6.80662 109.24580 8985 ft 147 kts 103°
2026-05-01 10:31 -6.80965 109.26609 8990 ft 147 kts 103°
2026-05-01 10:32 -6.81268 109.28644 8997 ft 147 kts 103°
2026-05-01 10:32 -6.81422 109.29668 8989 ft 148 kts 103°
2026-05-01 10:32 -6.81726 109.31704 9010 ft 147 kts 103°
2026-05-01 10:33 -6.82029 109.33740 9000 ft 147 kts 103°
2026-05-01 10:33 -6.82332 109.35773 9014 ft 146 kts 103°
2026-05-01 10:34 -6.82483 109.36788 9001 ft 147 kts 104°
2026-05-01 10:34 -6.82637 109.37807 8997 ft 147 kts 104°
2026-05-01 10:34 -6.82789 109.38828 9001 ft 147 kts 103°
2026-05-01 10:35 -6.83094 109.40869 9023 ft 146 kts 103°
2026-05-01 10:35 -6.83245 109.41887 9020 ft 147 kts 103°
2026-05-01 10:35 -6.83396 109.42904 9013 ft 147 kts 103°
2026-05-01 10:35 -6.83548 109.43929 9017 ft 148 kts 103°
2026-05-01 10:36 -6.83854 109.45980 9021 ft 148 kts 104°
2026-05-01 10:36 -6.84007 109.47005 9018 ft 148 kts 103°
2026-05-01 10:36 -6.84160 109.48032 9029 ft 147 kts 103°
2026-05-01 10:37 -6.84313 109.49057 9025 ft 147 kts 103°
2026-05-01 10:37 -6.84618 109.51104 9026 ft 146 kts 103°
2026-05-01 10:37 -6.84769 109.52116 9015 ft 146 kts 103°
2026-05-01 10:38 -6.84920 109.53134 9012 ft 147 kts 103°
2026-05-01 10:38 -6.85071 109.54152 9021 ft 146 kts 103°
2026-05-01 10:38 -6.85221 109.55164 9011 ft 147 kts 104°
2026-05-01 10:38 -6.85373 109.56181 9010 ft 147 kts 104°
2026-05-01 10:39 -6.85525 109.57204 9014 ft 148 kts 104°
2026-05-01 10:39 -6.85677 109.58226 9027 ft 147 kts 104°
2026-05-01 10:39 -6.85828 109.59241 9031 ft 147 kts 104°
2026-05-01 10:39 -6.85979 109.60256 9034 ft 146 kts 104°
2026-05-01 10:40 -6.86130 109.61270 9018 ft 147 kts 104°
2026-05-01 10:40 -6.86281 109.62286 9018 ft 147 kts 104°
2026-05-01 10:40 -6.86432 109.63303 9020 ft 147 kts 104°
2026-05-01 10:40 -6.86583 109.64320 9022 ft 147 kts 104°
2026-05-01 10:41 -6.86734 109.65336 9035 ft 146 kts 104°
2026-05-01 10:41 -6.86885 109.66352 9032 ft 146 kts 104°
2026-05-01 10:41 -6.87189 109.68378 9026 ft 147 kts 103°
2026-05-01 10:42 -6.87340 109.69395 9028 ft 147 kts 103°
2026-05-01 10:42 -6.87491 109.70412 9033 ft 146 kts 103°
2026-05-01 10:42 -6.87641 109.71423 9029 ft 146 kts 103°
2026-05-01 10:42 -6.87792 109.72440 9026 ft 147 kts 103°
2026-05-01 10:43 -6.87943 109.73457 9027 ft 147 kts 103°
2026-05-01 10:43 -6.88094 109.74473 9039 ft 146 kts 103°
2026-05-01 10:43 -6.88245 109.75493 9028 ft 148 kts 103°
2026-05-01 10:43 -6.88397 109.76519 9031 ft 148 kts 103°
2026-05-01 10:44 -6.88549 109.77540 9042 ft 147 kts 103°
2026-05-01 10:44 -6.88701 109.78565 9027 ft 148 kts 103°
2026-05-01 10:44 -6.88852 109.79589 9039 ft 147 kts 103°
2026-05-01 10:44 -6.89002 109.80603 9043 ft 146 kts 104°
2026-05-01 10:45 -6.89152 109.81614 9040 ft 145 kts 104°
2026-05-01 10:45 -6.89301 109.82624 9034 ft 145 kts 104°
2026-05-01 10:45 -6.89452 109.83635 9026 ft 146 kts 104°
2026-05-01 10:45 -6.89602 109.84649 9028 ft 146 kts 104°
2026-05-01 10:46 -6.89754 109.85670 9023 ft 147 kts 104°
2026-05-01 10:46 -6.89905 109.86694 9038 ft 147 kts 104°
2026-05-01 10:46 -6.90056 109.87711 9037 ft 147 kts 104°
2026-05-01 10:46 -6.90207 109.88732 9034 ft 147 kts 104°
2026-05-01 10:47 -6.90361 109.89758 9027 ft 149 kts 104°
2026-05-01 10:47 -6.90513 109.90790 9045 ft 148 kts 104°
2026-05-01 10:47 -6.90663 109.91810 9052 ft 147 kts 104°
2026-05-01 10:47 -6.90814 109.92828 9047 ft 147 kts 104°
2026-05-01 10:48 -6.90963 109.93845 9043 ft 146 kts 104°
2026-05-01 10:48 -6.91113 109.94857 9040 ft 146 kts 104°
2026-05-01 10:48 -6.91262 109.95867 9032 ft 146 kts 104°
2026-05-01 10:48 -6.91412 109.96879 9037 ft 146 kts 104°
2026-05-01 10:49 -6.91563 109.97891 9037 ft 146 kts 104°
2026-05-01 10:49 -6.91712 109.98905 9047 ft 145 kts 104°
2026-05-01 10:49 -6.91861 109.99914 9046 ft 145 kts 104°
2026-05-01 10:49 -6.92011 110.00926 9035 ft 146 kts 104°
2026-05-01 10:50 -6.92162 110.01943 9034 ft 147 kts 104°
2026-05-01 10:50 -6.92312 110.02958 9039 ft 146 kts 104°
2026-05-01 10:50 -6.92462 110.03975 9040 ft 146 kts 104°
2026-05-01 10:50 -6.92612 110.04987 9036 ft 147 kts 104°
2026-05-01 10:51 -6.92762 110.06003 9046 ft 146 kts 104°
2026-05-01 10:51 -6.92911 110.07015 9044 ft 145 kts 104°
2026-05-01 10:51 -6.93060 110.08027 9027 ft 147 kts 104°
2026-05-01 10:51 -6.93209 110.09042 9034 ft 146 kts 104°
2026-05-01 10:52 -6.93358 110.10051 9030 ft 146 kts 104°
2026-05-01 10:52 -6.93508 110.11064 9027 ft 146 kts 104°
2026-05-01 10:52 -6.93657 110.12077 9033 ft 146 kts 104°
2026-05-01 10:52 -6.93807 110.13089 9040 ft 146 kts 104°
2026-05-01 10:53 -6.93957 110.14101 9052 ft 146 kts 104°
2026-05-01 10:53 -6.94107 110.15118 9030 ft 147 kts 104°
2026-05-01 10:53 -6.94257 110.16136 9028 ft 146 kts 104°
2026-05-01 10:53 -6.94407 110.17148 9042 ft 147 kts 104°
2026-05-01 10:54 -6.94556 110.18163 9057 ft 146 kts 104°
2026-05-01 10:54 -6.94707 110.19183 9043 ft 147 kts 104°
2026-05-01 10:54 -6.94856 110.20204 9039 ft 147 kts 104°
2026-05-01 10:54 -6.95006 110.21220 9023 ft 146 kts 104°
2026-05-01 10:55 -6.95154 110.22233 9009 ft 146 kts 104°
2026-05-01 10:55 -6.95303 110.23243 8988 ft 146 kts 104°
2026-05-01 10:55 -6.95452 110.24251 8983 ft 146 kts 104°
2026-05-01 10:55 -6.95601 110.25260 8989 ft 146 kts 104°
2026-05-01 10:56 -6.95750 110.26273 9007 ft 146 kts 104°
2026-05-01 10:56 -6.95899 110.27286 9017 ft 146 kts 104°
2026-05-01 10:56 -6.96049 110.28303 9017 ft 147 kts 104°
2026-05-01 10:56 -6.96198 110.29318 9025 ft 146 kts 104°
2026-05-01 10:57 -6.96348 110.30338 9026 ft 147 kts 104°
2026-05-01 10:57 -6.96499 110.31357 9020 ft 147 kts 104°
2026-05-01 10:57 -6.96649 110.32376 9019 ft 147 kts 104°
2026-05-01 10:57 -6.96800 110.33395 9022 ft 147 kts 104°
2026-05-01 10:58 -6.96948 110.34411 9033 ft 146 kts 104°
2026-05-01 10:58 -6.97097 110.35424 9021 ft 146 kts 104°
2026-05-01 10:58 -6.97246 110.36439 9019 ft 146 kts 104°
2026-05-01 10:58 -6.97395 110.37453 9018 ft 146 kts 104°
2026-05-01 10:59 -6.97474 110.38477 9022 ft 146 kts 97°
2026-05-01 10:59 -6.97496 110.39504 9026 ft 146 kts 97°
2026-05-01 10:59 -6.97517 110.40531 9024 ft 147 kts 97°
2026-05-01 10:59 -6.97536 110.41556 9023 ft 146 kts 97°
2026-05-01 11:00 -6.97556 110.42585 9023 ft 146 kts 97°
2026-05-01 11:00 -6.97577 110.43612 9015 ft 147 kts 97°
2026-05-01 11:00 -6.97596 110.44639 9015 ft 147 kts 97°
2026-05-01 11:00 -6.97615 110.45669 9019 ft 147 kts 97°
2026-05-01 11:01 -6.97634 110.46700 9022 ft 147 kts 97°
2026-05-01 11:01 -6.97653 110.47732 9053 ft 147 kts 97°
2026-05-01 11:01 -6.97672 110.48763 9054 ft 147 kts 97°
2026-05-01 11:01 -6.97691 110.49795 9033 ft 147 kts 96°
2026-05-01 11:02 -6.97708 110.50820 9035 ft 146 kts 97°
2026-05-01 11:02 -6.97727 110.51848 9021 ft 147 kts 97°
2026-05-01 11:02 -6.97745 110.52874 9032 ft 147 kts 97°
2026-05-01 11:02 -6.97763 110.53901 9054 ft 146 kts 97°
2026-05-01 11:03 -6.97783 110.54931 9048 ft 147 kts 97°
2026-05-01 11:03 -6.97801 110.55964 9056 ft 147 kts 97°
2026-05-01 11:03 -6.97819 110.56992 9038 ft 147 kts 97°
2026-05-01 11:03 -6.97838 110.58022 9007 ft 147 kts 97°
2026-05-01 11:04 -6.97857 110.59057 9018 ft 147 kts 97°
2026-05-01 11:04 -6.97875 110.60090 9021 ft 147 kts 97°
2026-05-01 11:04 -6.97894 110.61118 9029 ft 147 kts 97°
2026-05-01 11:04 -6.97913 110.62144 9019 ft 147 kts 97°
2026-05-01 11:05 -6.97931 110.63172 9037 ft 146 kts 97°
2026-05-01 11:05 -6.97949 110.64199 9031 ft 146 kts 97°
2026-05-01 11:05 -6.97967 110.65227 9032 ft 146 kts 97°
2026-05-01 11:05 -6.97986 110.66258 9036 ft 147 kts 97°
2026-05-01 11:06 -6.98004 110.67287 9032 ft 147 kts 97°
2026-05-01 11:06 -6.98022 110.68316 9040 ft 146 kts 97°
2026-05-01 11:06 -6.98041 110.69340 9038 ft 147 kts 97°
2026-05-01 11:07 -6.98078 110.71402 9034 ft 147 kts 97°
2026-05-01 11:07 -6.98096 110.72429 9033 ft 146 kts 97°
2026-05-01 11:07 -6.98114 110.73455 9027 ft 147 kts 97°
2026-05-01 11:07 -6.98133 110.74483 9027 ft 147 kts 97°
2026-05-01 11:08 -6.98150 110.75512 9033 ft 146 kts 97°
2026-05-01 11:08 -6.98169 110.76542 9025 ft 147 kts 97°
2026-05-01 11:08 -6.98204 110.78598 9032 ft 146 kts 97°
2026-05-01 11:09 -6.98223 110.79624 9031 ft 146 kts 97°
2026-05-01 11:09 -6.98241 110.80659 9018 ft 147 kts 97°
2026-05-01 11:09 -6.98259 110.81690 9013 ft 147 kts 97°
2026-05-01 11:10 -6.98294 110.83747 9020 ft 146 kts 97°
2026-05-01 11:10 -6.98312 110.84778 9022 ft 147 kts 97°
2026-05-01 11:10 -6.98330 110.85805 9028 ft 147 kts 97°
2026-05-01 11:10 -6.98348 110.86832 9035 ft 146 kts 97°
2026-05-01 11:11 -6.98366 110.87862 9031 ft 147 kts 97°
2026-05-01 11:11 -6.98384 110.88894 9044 ft 146 kts 97°
2026-05-01 11:11 -6.98402 110.89918 9050 ft 146 kts 97°
2026-05-01 11:11 -6.98420 110.90942 9044 ft 146 kts 97°
2026-05-01 11:12 -6.98438 110.91973 9041 ft 146 kts 96°
2026-05-01 11:12 -6.98455 110.93005 9040 ft 147 kts 96°
2026-05-01 11:12 -6.98471 110.94031 9046 ft 146 kts 97°
2026-05-01 11:12 -6.98489 110.95057 9035 ft 147 kts 97°
2026-05-01 11:13 -6.98507 110.96089 9038 ft 147 kts 97°
2026-05-01 11:13 -6.98524 110.97120 9047 ft 147 kts 97°
2026-05-01 11:13 -6.98542 110.98151 9042 ft 147 kts 97°
2026-05-01 11:13 -6.98559 110.99182 9048 ft 147 kts 97°
2026-05-01 11:14 -6.98578 111.00216 9046 ft 148 kts 97°
2026-05-01 11:14 -6.98596 111.01260 9045 ft 148 kts 97°
2026-05-01 11:14 -6.98614 111.02294 9051 ft 147 kts 97°
2026-05-01 11:14 -6.98631 111.03326 9054 ft 147 kts 97°
2026-05-01 11:15 -6.98649 111.04352 9049 ft 147 kts 97°
2026-05-01 11:15 -6.98666 111.05384 9044 ft 147 kts 97°
2026-05-01 11:15 -6.98683 111.06413 9044 ft 146 kts 97°
2026-05-01 11:15 -6.98700 111.07438 9046 ft 146 kts 97°
2026-05-01 11:16 -6.98718 111.08463 9040 ft 146 kts 97°
2026-05-01 11:16 -6.98735 111.09495 9040 ft 147 kts 97°
2026-05-01 11:16 -6.98753 111.10522 9040 ft 147 kts 97°
2026-05-01 11:16 -6.98770 111.11555 9036 ft 148 kts 97°
2026-05-01 11:17 -6.98787 111.12589 9044 ft 148 kts 97°
2026-05-01 11:17 -6.98805 111.13627 9044 ft 148 kts 97°
2026-05-01 11:17 -6.98822 111.14660 9053 ft 147 kts 97°
2026-05-01 11:17 -6.98839 111.15690 9055 ft 147 kts 97°
2026-05-01 11:18 -6.98856 111.16718 9049 ft 147 kts 97°
2026-05-01 11:18 -6.98874 111.17754 9041 ft 147 kts 97°
2026-05-01 11:18 -6.98891 111.18785 9040 ft 147 kts 97°
2026-05-01 11:18 -6.98908 111.19814 9045 ft 147 kts 97°
2026-05-01 11:19 -6.98925 111.20842 9046 ft 146 kts 97°
2026-05-01 11:19 -6.98942 111.21872 9040 ft 147 kts 97°
2026-05-01 11:19 -6.98959 111.22896 9046 ft 146 kts 97°
2026-05-01 11:19 -6.98976 111.23921 9041 ft 146 kts 97°
2026-05-01 11:20 -6.98994 111.24951 9040 ft 147 kts 97°
2026-05-01 11:20 -6.99011 111.25982 9038 ft 147 kts 97°
2026-05-01 11:20 -6.99027 111.27011 9041 ft 147 kts 97°
2026-05-01 11:20 -6.99044 111.28040 9041 ft 147 kts 97°
2026-05-01 11:21 -6.99061 111.29072 9031 ft 147 kts 97°
2026-05-01 11:21 -6.99078 111.30103 9031 ft 147 kts 97°
2026-05-01 11:21 -6.99095 111.31135 9036 ft 147 kts 97°
2026-05-01 11:21 -6.99112 111.32162 9033 ft 147 kts 97°
2026-05-01 11:22 -6.99128 111.33193 9028 ft 147 kts 97°
2026-05-01 11:22 -6.99146 111.34222 9026 ft 147 kts 96°
2026-05-01 11:22 -6.99163 111.35250 9028 ft 146 kts 96°
2026-05-01 11:22 -6.99180 111.36275 9021 ft 147 kts 96°
2026-05-01 11:23 -6.99197 111.37307 9023 ft 147 kts 96°
2026-05-01 11:23 -6.99213 111.38337 9024 ft 147 kts 96°
2026-05-01 11:23 -6.99229 111.39366 9032 ft 147 kts 96°
2026-05-01 11:23 -6.99246 111.40398 9032 ft 148 kts 96°
2026-05-01 11:24 -6.99261 111.41433 9042 ft 147 kts 96°
2026-05-01 11:24 -6.99447 111.42436 9046 ft 146 kts 110°
2026-05-01 11:24 -6.99998 111.44413 9047 ft 146 kts 111°
2026-05-01 11:25 -7.00274 111.45398 9050 ft 146 kts 110°
2026-05-01 11:25 -7.00829 111.47369 9050 ft 146 kts 110°
2026-05-01 11:25 -7.01107 111.48353 9048 ft 146 kts 110°
2026-05-01 11:26 -7.01388 111.49343 9043 ft 146 kts 110°
2026-05-01 11:26 -7.01944 111.51312 9041 ft 147 kts 110°
2026-05-01 11:26 -7.02223 111.52300 9045 ft 146 kts 110°
2026-05-01 11:27 -7.02505 111.53292 9041 ft 147 kts 110°
2026-05-01 11:27 -7.02785 111.54285 9046 ft 147 kts 110°
2026-05-01 11:27 -7.03066 111.55279 9050 ft 147 kts 111°
2026-05-01 11:27 -7.03347 111.56269 9054 ft 147 kts 111°
2026-05-01 11:28 -7.03628 111.57264 9050 ft 147 kts 111°
2026-05-01 11:28 -7.03910 111.58254 9050 ft 147 kts 111°
2026-05-01 11:28 -7.04190 111.59243 9047 ft 147 kts 111°
2026-05-01 11:29 -7.04749 111.61217 9045 ft 146 kts 111°
2026-05-01 11:29 -7.05029 111.62202 9039 ft 146 kts 110°
2026-05-01 11:29 -7.05587 111.64174 9039 ft 146 kts 110°
2026-05-01 11:30 -7.05866 111.65159 9042 ft 146 kts 110°
2026-05-01 11:30 -7.06145 111.66142 9046 ft 146 kts 110°
2026-05-01 11:30 -7.06424 111.67127 9040 ft 146 kts 110°
2026-05-01 11:30 -7.06705 111.68116 9035 ft 147 kts 110°
2026-05-01 11:31 -7.06987 111.69111 9033 ft 147 kts 110°
2026-05-01 11:31 -7.07268 111.70105 9045 ft 147 kts 110°
2026-05-01 11:31 -7.07548 111.71091 9052 ft 146 kts 110°
2026-05-01 11:31 -7.07827 111.72075 9051 ft 146 kts 110°
2026-05-01 11:32 -7.08106 111.73061 9039 ft 146 kts 110°
2026-05-01 11:32 -7.08386 111.74048 9042 ft 146 kts 110°
2026-05-01 11:32 -7.08665 111.75033 9034 ft 146 kts 110°
2026-05-01 11:32 -7.08942 111.76015 9047 ft 145 kts 110°
2026-05-01 11:33 -7.09221 111.77000 9040 ft 146 kts 110°
2026-05-01 11:33 -7.09501 111.77987 9034 ft 146 kts 110°
2026-05-01 11:33 -7.09780 111.78974 9048 ft 146 kts 110°
2026-05-01 11:33 -7.10059 111.79962 9045 ft 146 kts 110°
2026-05-01 11:34 -7.10339 111.80956 9040 ft 147 kts 110°
2026-05-01 11:34 -7.10615 111.81946 9050 ft 146 kts 110°
2026-05-01 11:34 -7.10891 111.82934 9053 ft 146 kts 110°
2026-05-01 11:34 -7.11168 111.83920 9050 ft 146 kts 110°
2026-05-01 11:35 -7.11446 111.84909 9050 ft 146 kts 110°
2026-05-01 11:35 -7.11724 111.85895 9046 ft 146 kts 110°
2026-05-01 11:35 -7.12001 111.86875 9053 ft 145 kts 110°
2026-05-01 11:35 -7.12279 111.87861 9053 ft 146 kts 110°
2026-05-01 11:36 -7.12558 111.88847 9052 ft 146 kts 110°
2026-05-01 11:36 -7.12836 111.89833 9061 ft 146 kts 110°
2026-05-01 11:36 -7.13116 111.90822 9050 ft 147 kts 110°
2026-05-01 11:36 -7.13397 111.91815 9056 ft 147 kts 110°
2026-05-01 11:37 -7.13678 111.92811 9059 ft 147 kts 110°
2026-05-01 11:37 -7.13959 111.93807 9069 ft 147 kts 110°
2026-05-01 11:37 -7.14240 111.94802 9067 ft 147 kts 110°
2026-05-01 11:37 -7.14521 111.95800 9068 ft 148 kts 110°
2026-05-01 11:38 -7.14802 111.96794 9077 ft 146 kts 110°
2026-05-01 11:38 -7.15081 111.97785 9069 ft 146 kts 110°
2026-05-01 11:38 -7.15358 111.98770 9065 ft 146 kts 110°
2026-05-01 11:38 -7.15641 111.99753 9064 ft 145 kts 112°
2026-05-01 11:39 -7.16034 112.00697 9052 ft 146 kts 117°
2026-05-01 11:39 -7.16435 112.01641 9038 ft 146 kts 117°
2026-05-01 11:39 -7.16839 112.02588 9044 ft 146 kts 117°
2026-05-01 11:39 -7.17243 112.03534 9039 ft 147 kts 117°
2026-05-01 11:40 -7.17648 112.04481 9046 ft 147 kts 117°
2026-05-01 11:40 -7.18054 112.05431 9048 ft 147 kts 117°
2026-05-01 11:40 -7.18459 112.06377 9052 ft 147 kts 117°
2026-05-01 11:40 -7.18864 112.07324 9046 ft 147 kts 117°
2026-05-01 11:41 -7.19271 112.08277 9041 ft 148 kts 117°
2026-05-01 11:41 -7.19676 112.09221 9017 ft 146 kts 116°
2026-05-01 11:41 -7.20075 112.10159 8930 ft 145 kts 115°
2026-05-01 11:41 -7.20472 112.11098 8823 ft 145 kts 115°
2026-05-01 11:42 -7.20867 112.12029 8731 ft 143 kts 115°
2026-05-01 11:42 -7.21261 112.12957 8616 ft 144 kts 116°
2026-05-01 11:42 -7.21657 112.13885 8509 ft 144 kts 115°
2026-05-01 11:42 -7.22054 112.14814 8404 ft 144 kts 115°
2026-05-01 11:43 -7.22448 112.15737 8309 ft 143 kts 115°
2026-05-01 11:43 -7.22842 112.16660 8199 ft 143 kts 115°
2026-05-01 11:43 -7.23235 112.17581 8097 ft 143 kts 115°
2026-05-01 11:44 -7.24023 112.19426 7887 ft 143 kts 115°
2026-05-01 11:44 -7.24416 112.20346 7783 ft 142 kts 115°
2026-05-01 11:44 -7.24809 112.21266 7683 ft 141 kts 115°
2026-05-01 11:44 -7.25198 112.22176 7580 ft 140 kts 115°
2026-05-01 11:45 -7.25554 112.23012 7475 ft 141 kts 115°
2026-05-01 11:45 -7.25942 112.23920 7377 ft 140 kts 115°
2026-05-01 11:45 -7.26325 112.24819 7268 ft 139 kts 115°
2026-05-01 11:45 -7.26707 112.25718 7148 ft 140 kts 116°
2026-05-01 11:46 -7.27092 112.26618 7047 ft 139 kts 116°
2026-05-01 11:46 -7.27476 112.27515 6942 ft 139 kts 115°
2026-05-01 11:46 -7.27859 112.28412 6828 ft 139 kts 115°
2026-05-01 11:46 -7.28242 112.29308 6726 ft 138 kts 115°
2026-05-01 11:47 -7.28627 112.30204 6614 ft 139 kts 115°
2026-05-01 11:47 -7.29008 112.31094 6516 ft 138 kts 115°
2026-05-01 11:47 -7.29389 112.31981 6423 ft 137 kts 115°
2026-05-01 11:47 -7.29698 112.32887 6303 ft 137 kts 105°
2026-05-01 11:48 -7.29895 112.33822 6206 ft 136 kts 104°
2026-05-01 11:48 -7.30086 112.34752 6100 ft 136 kts 104°
2026-05-01 11:48 -7.30275 112.35686 5994 ft 135 kts 104°
2026-05-01 11:48 -7.30430 112.36626 5879 ft 136 kts 100°
2026-05-01 11:49 -7.30536 112.37570 5779 ft 135 kts 100°
2026-05-01 11:49 -7.30643 112.38514 5668 ft 135 kts 100°
2026-05-01 11:49 -7.30751 112.39452 5563 ft 135 kts 100°
2026-05-01 11:49 -7.30860 112.40396 5443 ft 136 kts 100°
2026-05-01 11:50 -7.30972 112.41343 5343 ft 136 kts 100°
2026-05-01 11:50 -7.31090 112.42287 5247 ft 134 kts 99°
2026-05-01 11:50 -7.31215 112.43218 5117 ft 133 kts 100°
2026-05-01 11:50 -7.31340 112.44146 4987 ft 133 kts 100°
2026-05-01 11:51 -7.31462 112.45046 4926 ft 124 kts 99°
2026-05-01 11:51 -7.31587 112.45895 4756 ft 121 kts 99°
2026-05-01 11:51 -7.31705 112.46735 4557 ft 121 kts 99°
2026-05-01 11:51 -7.31892 112.47563 4367 ft 121 kts 107°
2026-05-01 11:52 -7.32141 112.48380 4191 ft 121 kts 108°
2026-05-01 11:52 -7.32397 112.49185 4016 ft 120 kts 108°
2026-05-01 11:52 -7.32656 112.49988 3834 ft 120 kts 109°
2026-05-01 11:52 -7.32917 112.50790 3656 ft 120 kts 109°
2026-05-01 11:53 -7.33180 112.51595 3522 ft 121 kts 111°
2026-05-01 11:53 -7.33450 112.52399 3510 ft 121 kts 112°
2026-05-01 11:53 -7.33722 112.53204 3530 ft 121 kts 112°
2026-05-01 11:53 -7.33951 112.54021 3541 ft 121 kts 104°
2026-05-01 11:54 -7.34131 112.54848 3494 ft 120 kts 103°
2026-05-01 11:54 -7.34279 112.55668 3344 ft 119 kts 100°
2026-05-01 11:54 -7.34409 112.56484 3154 ft 117 kts 98°
2026-05-01 11:54 -7.34529 112.57287 2919 ft 116 kts 97°
2026-05-01 11:55 -7.34645 112.58090 2677 ft 114 kts 97°
2026-05-01 11:55 -7.34757 112.58877 2432 ft 113 kts 97°
2026-05-01 11:55 -7.34870 112.59655 2181 ft 112 kts 98°
2026-05-01 11:55 -7.34991 112.60424 2013 ft 110 kts 101°
2026-05-01 11:56 -7.35121 112.61189 1995 ft 110 kts 104°
2026-05-01 11:56 -7.35253 112.61952 2028 ft 109 kts 103°
2026-05-01 11:56 -7.35374 112.62673 2112 ft 98 kts 103°
2026-05-01 11:56 -7.35478 112.63294 2133 ft 81 kts 101°
2026-05-01 11:57 -7.35561 112.63827 2040 ft 74 kts 103°
2026-05-01 11:57 -7.35644 112.64342 1997 ft 75 kts 104°
2026-05-01 11:57 -7.35731 112.64864 1994 ft 76 kts 105°
2026-05-01 11:57 -7.35818 112.65389 2014 ft 75 kts 104°
2026-05-01 11:58 -7.35906 112.65913 2023 ft 75 kts 104°
2026-05-01 11:58 -7.35992 112.66436 2027 ft 75 kts 104°
2026-05-01 11:58 -7.36164 112.67478 2032 ft 75 kts 103°
2026-05-01 11:59 -7.36235 112.68004 2004 ft 75 kts 101°
2026-05-01 11:59 -7.36317 112.68520 1960 ft 74 kts 103°
2026-05-01 11:59 -7.36403 112.69038 1830 ft 75 kts 101°
2026-05-01 12:00 -7.36569 112.70088 1480 ft 76 kts 100°
2026-05-01 12:00 -7.36655 112.70620 1381 ft 77 kts 102°
2026-05-01 12:00 -7.36832 112.71674 1187 ft 76 kts 102°
2026-05-01 12:01 -7.36920 112.72202 1075 ft 76 kts 102°
2026-05-01 12:01 -7.37006 112.72728 951 ft 76 kts 102°
2026-05-01 12:01 -7.37092 112.73252 837 ft 75 kts 102°
2026-05-01 12:01 -7.37177 112.73776 727 ft 76 kts 102°
2026-05-01 12:02 -7.37264 112.74303 627 ft 75 kts 102°
2026-05-01 12:02 -7.37347 112.74816 528 ft 73 kts 103°
2026-05-01 12:02 -7.37430 112.75325 431 ft 74 kts 104°
2026-05-01 12:02 -7.37515 112.75836 336 ft 74 kts 103°
2026-05-01 12:03 -7.37599 112.76350 241 ft 74 kts 104°
2026-05-01 12:03 -7.37682 112.76862 146 ft 74 kts 104°
2026-05-01 12:03 -7.37765 112.77370 56 ft 71 kts 103°
2026-05-01 12:03 -7.37848 112.77818 10 ft 55 kts 98°
2026-05-01 12:04 -7.37882 112.78080 8 ft 25 kts 99°
2026-05-01 12:04 -7.37899 112.78185 8 ft 5 kts 99°
2026-05-01 12:04 -7.37900 112.78191 8 ft 0 kts 99°